Change the Weather History Date:

Wednesday, January 22, 2014

  Actual Average (KHVN) Record (KHVN)
Temperature  
Mean Temperature 12 °F -  
Max Temperature 17 °F 32 °F 52 °F (1986)
Min Temperature 8 °F 20 °F -2 °F (1984)
Degree Days  
Heating Degree Days 52    
Moisture  
Dew Point -    
Average Humidity    
Maximum Humidity    
Minimum Humidity    
Precipitation  
Precipitation 0.44 in - - ()
Sea Level Pressure  
Sea Level Pressure 29.75 in    
Wind  
Wind Speed 14 mph (NNW)    
Max Wind Speed 22 mph    
Max Gust Speed 32 mph    
Visibility 7 miles    
Events Snow    
Averages and records for this station are not official NWS values.
T = Trace of Precipitation, MM = Missing Value Source: NWS Daily Summary

Daily Weather History Graph

Daily Weather History Graph

Search for Another Location

Airport or City:

Trip Planner

Search our weather history database for the weather conditions in past years. The results will help you decide how hot, cold, wet, or windy it might be!

Date:

Astronomy

Jan. 22, 2014 Rise Set
Actual Time 7:09 AM EST 4:53 PM EST
Civil Twilight 6:39 AM EST 5:23 PM EST
Nautical Twilight 6:06 AM EST 5:57 PM EST
Astronomical Twilight 5:33 AM EST 6:30 PM EST
Moon 11:28 PM EST (1/22) 10:04 AM EST (1/22)
Length of Visible Light 10h 43m
Length of Day
9h 43m
Waning Gibbous, 65% of the Moon is Illuminated
Jan 22
Waning Gibbous
Jan 24
Last Quarter
Jan 30
New
Feb 6
First Quarter
Feb 14
Full

Hourly Weather History & Observations

Time (EST) Temp. Windchill Dew Point Humidity Pressure Visibility Wind Dir Wind Speed Gust Speed Precip Events Conditions
12:15 AM 12.2 °F -2.5 °F - N/A% 29.77 in 7.0 mi North 12.7 mph 18.4 mph N/A Snow Light Snow
12:35 AM 12.2 °F -1.8 °F - N/A% 29.76 in 9.0 mi North 11.5 mph 19.6 mph 0.01 in Snow Light Snow
12:55 AM 12.2 °F -0.2 °F - N/A% 29.76 in 10.0 mi North 9.2 mph 18.4 mph 0.01 in Snow Light Snow
1:15 AM 10.4 °F -6.0 °F - N/A% 29.74 in 7.0 mi North 15.0 mph 21.9 mph N/A Snow Light Snow
1:35 AM 10.4 °F -5.4 °F - N/A% 29.75 in 9.0 mi North 13.8 mph 19.6 mph N/A Snow Light Snow
1:55 AM 10.4 °F -6.0 °F - N/A% 29.74 in 7.0 mi North 15.0 mph 23.0 mph 0.01 in Snow Light Snow
2:15 AM 10.4 °F -5.4 °F - N/A% 29.74 in 7.0 mi North 13.8 mph 21.9 mph N/A Snow Light Snow
2:35 AM 12.2 °F -3.1 °F - N/A% 29.74 in 5.0 mi North 13.8 mph 19.6 mph 0.01 in Snow Light Snow
2:55 AM 10.4 °F -4.1 °F - N/A% 29.73 in 3.0 mi North 11.5 mph 21.9 mph 0.03 in Snow Light Snow
3:15 AM 10.4 °F -5.4 °F - N/A% 29.73 in 3.0 mi North 13.8 mph 20.7 mph 0.01 in Snow Light Snow
3:35 AM 10.4 °F -4.1 °F - N/A% 29.72 in 3.0 mi North 11.5 mph 23.0 mph 0.04 in Snow Light Snow
3:55 AM 10.4 °F -6.6 °F - N/A% 29.72 in 4.0 mi North 16.1 mph 24.2 mph 0.06 in Snow Light Snow
4:15 AM 10.4 °F -4.1 °F - N/A% 29.72 in 3.0 mi North 11.5 mph 20.7 mph 0.01 in Snow Light Snow
4:55 AM 10.4 °F -5.4 °F - N/A% 29.72 in 1.8 mi North 13.8 mph 25.3 mph 0.13 in Snow Light Snow
5:15 AM 10.4 °F -6.0 °F - N/A% 29.73 in 1.8 mi North 15.0 mph 24.2 mph 0.05 in Snow Light Snow
5:35 AM 8.6 °F -8.9 °F - N/A% 29.72 in 2.0 mi North 16.1 mph 26.5 mph 0.13 in Snow Light Snow
5:55 AM 8.6 °F -7.0 °F - N/A% 29.73 in 2.5 mi North 12.7 mph 20.7 mph 0.17 in Snow Light Snow
6:15 AM 8.6 °F -8.3 °F - N/A% 29.72 in 5.0 mi North 15.0 mph 25.3 mph N/A Snow Light Snow
6:35 AM 8.6 °F -7.0 °F - N/A% 29.72 in 4.0 mi North 12.7 mph 26.5 mph 0.01 in   Haze
6:55 AM 8.6 °F -8.9 °F - N/A% 29.72 in 3.0 mi North 16.1 mph 24.2 mph 0.01 in Snow Light Snow
7:15 AM 8.6 °F -8.3 °F - N/A% 29.70 in 3.0 mi North 15.0 mph 25.3 mph N/A   Overcast
7:35 AM 8.6 °F -9.5 °F - N/A% 29.70 in 4.0 mi North 17.3 mph 27.6 mph N/A Snow Light Snow
7:55 AM 8.6 °F -11.0 °F - N/A% 29.70 in 4.0 mi North 20.7 mph 28.8 mph 0.01 in Snow Light Snow
8:15 AM 8.6 °F -11.4 °F - N/A% 29.70 in 2.5 mi North 21.9 mph 32.2 mph N/A Snow Light Snow
8:35 AM 8.6 °F -11.0 °F - N/A% 29.70 in 2.0 mi North 20.7 mph 32.2 mph 0.01 in Snow Light Snow
8:55 AM 8.6 °F -11.0 °F - N/A% 29.71 in 3.0 mi North 20.7 mph 27.6 mph 0.01 in Snow Light Snow
9:15 AM 8.6 °F -9.5 °F - N/A% 29.71 in 4.0 mi North 17.3 mph 27.6 mph N/A Snow Light Snow
9:35 AM 8.6 °F -8.3 °F - N/A% 29.70 in 5.0 mi North 15.0 mph 27.6 mph N/A   Haze
9:55 AM 8.6 °F -7.7 °F - N/A% 29.69 in 4.0 mi North 13.8 mph 29.9 mph N/A   Haze
10:15 AM 10.4 °F -7.2 °F - N/A% 29.68 in 7.0 mi NNW 17.3 mph 23.0 mph N/A Snow Light Snow
10:35 AM 10.4 °F -9.1 °F - N/A% 29.67 in 5.0 mi NNW 21.9 mph 29.9 mph N/A Snow Light Snow
10:55 AM 10.4 °F -8.2 °F - N/A% 29.67 in 3.0 mi North 19.6 mph 29.9 mph N/A Snow Light Snow
11:15 AM 12.2 °F -0.2 °F - N/A% 29.67 in 7.0 mi NNW 9.2 mph 25.3 mph N/A   Clear
11:35 AM 12.2 °F -4.3 °F - N/A% 29.67 in 5.0 mi North 16.1 mph 26.5 mph N/A   Haze
11:55 AM 14.0 °F -1.4 °F - N/A% 29.67 in 7.0 mi North 15.0 mph 24.2 mph N/A   Clear
12:15 PM 14.0 °F -2.5 °F - N/A% 29.68 in 8.0 mi NNW 17.3 mph 21.9 mph N/A   Clear
12:35 PM 14.0 °F -2.5 °F - N/A% 29.67 in 5.0 mi NNW 17.3 mph 24.2 mph N/A Snow Light Snow
12:55 PM 15.8 °F 0.3 °F - N/A% 29.68 in 10.0 mi NNW 16.1 mph 19.6 mph N/A   Clear
1:15 PM 15.8 °F 0.3 °F - N/A% 29.69 in 9.0 mi NW 16.1 mph 24.2 mph N/A Snow Light Snow
1:35 PM 17.6 °F 5.0 °F - N/A% 29.69 in 9.0 mi North 11.5 mph - N/A   Clear
1:55 PM 17.6 °F 5.0 °F - N/A% 29.70 in 10.0 mi NNW 11.5 mph - N/A   Clear
2:15 PM 17.6 °F 3.2 °F - N/A% 29.71 in 9.0 mi NNW 15.0 mph 20.7 mph N/A Snow Light Snow
2:35 PM 17.6 °F 2.7 °F - N/A% 29.71 in 10.0 mi NNW 16.1 mph 20.7 mph N/A   Clear
2:55 PM 17.6 °F 5.0 °F - N/A% 29.72 in 8.0 mi NNW 11.5 mph 20.7 mph N/A Snow Light Snow
3:15 PM 17.6 °F 5.7 °F - N/A% 29.73 in 10.0 mi NW 10.4 mph 20.7 mph N/A   Clear
3:35 PM 17.6 °F 3.7 °F - N/A% 29.74 in 9.0 mi NNW 13.8 mph 20.7 mph N/A   Clear
3:55 PM 17.6 °F 4.3 °F - N/A% 29.75 in 10.0 mi NNW 12.7 mph 21.9 mph N/A   Clear
4:15 PM 15.8 °F 2.1 °F - N/A% 29.76 in 8.0 mi NW 12.7 mph 21.9 mph N/A   Clear
4:35 PM 14.0 °F 2.9 °F - N/A% 29.76 in 10.0 mi NNW 8.1 mph 19.6 mph N/A   Clear
4:55 PM 14.0 °F 2.0 °F - N/A% 29.77 in 10.0 mi NW 9.2 mph 17.3 mph N/A   Clear
5:15 PM 12.2 °F 0.7 °F - N/A% 29.78 in 10.0 mi NW 8.1 mph 16.1 mph N/A   Clear
5:35 PM 12.2 °F 0.7 °F - N/A% 29.78 in 10.0 mi NW 8.1 mph - N/A   Clear
5:55 PM 12.2 °F -0.2 °F - N/A% 29.80 in 10.0 mi NNW 9.2 mph - N/A   Clear
6:15 PM 12.2 °F 1.7 °F - N/A% 29.80 in 10.0 mi NNW 6.9 mph - N/A   Clear
6:35 PM 10.4 °F -5.4 °F - N/A% 29.81 in 10.0 mi NNW 13.8 mph 17.3 mph N/A   Clear
6:55 PM 10.4 °F -6.0 °F - N/A% 29.81 in 10.0 mi NNW 15.0 mph 19.6 mph N/A   Clear
7:15 PM 10.4 °F -3.3 °F - N/A% 29.82 in 10.0 mi NW 10.4 mph 17.3 mph N/A   Clear
7:35 PM 10.4 °F -3.3 °F - N/A% 29.82 in 10.0 mi NNW 10.4 mph - N/A   Clear
7:55 PM 10.4 °F -4.8 °F - N/A% 29.82 in 10.0 mi NNW 12.7 mph - N/A   Clear
8:15 PM 10.4 °F -2.4 °F - N/A% 29.83 in 10.0 mi NNW 9.2 mph 19.6 mph N/A   Clear
8:35 PM 10.4 °F -4.8 °F - N/A% 29.84 in 10.0 mi NNW 12.7 mph - N/A   Clear
8:55 PM 10.4 °F -4.1 °F - N/A% 29.85 in 10.0 mi NNW 11.5 mph - N/A   Clear
9:15 PM 10.4 °F -4.1 °F - N/A% 29.86 in 10.0 mi NW 11.5 mph 17.3 mph N/A   Clear
9:35 PM 8.6 °F -5.5 °F - N/A% 29.87 in 10.0 mi NNW 10.4 mph - N/A   Clear
9:55 PM 8.6 °F -5.5 °F - N/A% 29.88 in 10.0 mi NW 10.4 mph 19.6 mph N/A   Clear
10:15 PM 8.6 °F -5.5 °F - N/A% 29.88 in 10.0 mi NNW 10.4 mph 17.3 mph N/A   Clear
10:35 PM 8.6 °F -5.5 °F - N/A% 29.89 in 10.0 mi NNW 10.4 mph 21.9 mph N/A   Clear
10:55 PM 8.6 °F -5.5 °F - N/A% 29.89 in 10.0 mi NNW 10.4 mph - N/A   Clear
11:15 PM 8.6 °F -7.0 °F - N/A% 29.89 in 10.0 mi NNW 12.7 mph 18.4 mph N/A   Clear
11:35 PM 8.6 °F -4.7 °F - N/A% 29.90 in 10.0 mi NW 9.2 mph 19.6 mph N/A   Clear
11:55 PM 8.6 °F -4.7 °F - N/A% 29.91 in 10.0 mi NW 9.2 mph - N/A   Clear